Bastrop, LA

11:37 PM CST on November 22, 2017 (GMT -0600)
Bastrop

Weather History for KBQP - June, 2013

Change the Weather History Date:

Thursday, June 6, 2013

  Actual Average (KMLU) Record (KMLU)
Temperature  
Mean Temperature 76 °F -  
Max Temperature 82 °F 88 °F 102 °F (1977)
Min Temperature 70 °F 68 °F 52 °F (1926)
Cooling Degree Days 11    
Growing Degree Days 26 (Base 50)    
Moisture  
Dew Point 69 °F    
Average Humidity 82    
Maximum Humidity 93    
Minimum Humidity 67    
Precipitation  
Precipitation 0.56 in - - ()
Sea Level Pressure  
Sea Level Pressure 29.84 in    
Wind  
Wind Speed 2 mph (WNW)    
Max Wind Speed 15 mph    
Max Gust Speed 22 mph    
Visibility 9 miles    
Events Rain , Thunderstorm    
Averages and records for this station are not official NWS values.
T = Trace of Precipitation, MM = Missing Value Source: NWS Daily Summary

Daily Weather History Graph

Daily Weather History Graph

Search for Another Location

Airport or City:

Trip Planner

Search our weather history database for the weather conditions in past years. The results will help you decide how hot, cold, wet, or windy it might be!

Date:

Astronomy

Jun. 06, 2013 Rise Set
Actual Time 5:59 AM CDT 8:13 PM CDT
Civil Twilight 5:30 AM CDT 8:41 PM CDT
Nautical Twilight 4:56 AM CDT 9:16 PM CDT
Astronomical Twilight 4:18 AM CDT 9:54 PM CDT
Moon 4:35 AM CDT (6/6) 6:39 PM CDT (6/6)
Length of Visible Light 15h 10m
Length of Day
14h 14m
Waning Crescent, 3% of the Moon is Illuminated
Jun 6
Waning Crescent
Jun 8
New
Jun 16
First Quarter
Jun 23
Full
Jun 29
Last Quarter

Hourly Weather History & Observations

Time (CDT) Temp. Heat Index Dew Point Humidity Pressure Visibility Wind Dir Wind Speed Gust Speed Precip Events Conditions
12:15 AM 75.7 °F - 72.1 °F 89% 29.86 in 10.0 mi Calm Calm - N/A   Clear
12:35 AM 75.6 °F - 71.8 °F 88% 29.85 in 10.0 mi Calm Calm - N/A   Clear
12:55 AM 75.7 °F - 71.2 °F 86% 29.84 in 10.0 mi Calm Calm - N/A   Clear
1:15 AM 75.2 °F - 70.9 °F 86% 29.84 in 10.0 mi Calm Calm - N/A   Clear
1:35 AM 74.7 °F - 70.7 °F 87% 29.84 in 10.0 mi Calm Calm - N/A   Clear
1:55 AM 74.8 °F - 70.9 °F 87% 29.83 in 10.0 mi Calm Calm - N/A   Scattered Clouds
2:15 AM 75.2 °F - 70.9 °F 86% 29.82 in 10.0 mi Calm Calm - N/A Thunderstorm Scattered Clouds
2:35 AM 74.3 °F - 71.6 °F 91% 29.83 in 7.0 mi Calm Calm - N/A Rain , Thunderstorm Thunderstorms and Rain
2:55 AM 73.9 °F - 70.2 °F 88% 29.85 in 2.5 mi West 13.8 mph 21.9 mph 0.23 in Rain , Thunderstorm Heavy Thunderstorms and Rain
3:15 AM 71.6 °F - 68.2 °F 89% 29.83 in 7.0 mi South 5.8 mph - 0.07 in Rain , Thunderstorm Light Thunderstorms and Rain
3:35 AM 71.6 °F - 68.0 °F 88% 29.81 in 10.0 mi Calm Calm - 0.07 in Rain , Thunderstorm Light Thunderstorms and Rain
3:55 AM 70.7 °F - 68.0 °F 91% 29.81 in 10.0 mi Calm Calm - 0.07 in   Clear
4:15 AM 70.7 °F - 68.4 °F 92% 29.82 in 7.0 mi Calm Calm - N/A Thunderstorm Mostly Cloudy
4:35 AM 70.9 °F - 68.5 °F 92% 29.81 in 5.0 mi Calm Calm - N/A   Mostly Cloudy
4:55 AM 70.7 °F - 68.4 °F 92% 29.81 in 4.0 mi Calm Calm - N/A   Scattered Clouds
5:15 AM 70.7 °F - 68.4 °F 92% 29.82 in 5.0 mi Calm Calm - N/A   Scattered Clouds
5:35 AM 71.6 °F - 69.3 °F 92% 29.83 in 7.0 mi Calm Calm - N/A   Mostly Cloudy
5:55 AM 72.7 °F - 70.3 °F 92% 29.83 in 7.0 mi Calm Calm - N/A   Scattered Clouds
6:15 AM 71.6 °F - 69.3 °F 92% 29.82 in 3.0 mi Calm Calm - N/A   Scattered Clouds
6:35 AM 71.8 °F - 69.8 °F 93% 29.82 in 4.0 mi Calm Calm - N/A   Clear
6:55 AM 72.9 °F - 70.7 °F 93% 29.83 in 4.0 mi Calm Calm - N/A   Scattered Clouds
7:15 AM 73.2 °F - 70.9 °F 92% 29.83 in 5.0 mi Calm Calm - N/A   Clear
7:35 AM 73.8 °F - 70.9 °F 91% 29.84 in 10.0 mi Calm Calm - N/A   Clear
7:55 AM 74.3 °F - 70.3 °F 87% 29.85 in 10.0 mi Calm Calm - N/A   Clear
8:15 AM 75.6 °F - 70.5 °F 84% 29.85 in 10.0 mi Calm Calm - N/A   Clear
8:35 AM 76.5 °F - 70.9 °F 83% 29.84 in 10.0 mi Calm Calm - N/A   Clear
8:55 AM 77.0 °F - 69.4 °F 77% 29.83 in 10.0 mi Calm Calm - N/A   Clear
9:15 AM 78.6 °F - 70.0 °F 75% 29.82 in 10.0 mi Calm Calm - N/A   Clear
9:35 AM 79.2 °F - 70.0 °F 73% 29.83 in 10.0 mi West 8.1 mph - N/A   Clear
9:55 AM 79.0 °F - 70.5 °F 75% 29.84 in 10.0 mi Calm Calm - N/A   Clear
10:15 AM 80.4 °F 83.9 °F 70.5 °F 72% 29.84 in 10.0 mi Calm Calm - N/A   Clear
10:35 AM 81.0 °F 84.7 °F 70.7 °F 71% 29.85 in 10.0 mi Calm Calm - N/A   Clear
10:55 AM 82.8 °F 87.4 °F 71.2 °F 68% 29.86 in 10.0 mi Calm Calm - N/A   Scattered Clouds
11:15 AM 81.1 °F 85.0 °F 70.9 °F 71% 29.88 in 10.0 mi WSW 3.5 mph - N/A   Mostly Cloudy
11:35 AM 80.1 °F 83.4 °F 70.5 °F 73% 29.90 in 10.0 mi WSW 3.5 mph - N/A   Overcast
11:55 AM 75.7 °F - 70.7 °F 84% 29.91 in 1.5 mi WNW 6.9 mph 21.9 mph 0.25 in Rain , Thunderstorm Heavy Thunderstorms and Rain
12:15 PM 76.5 °F - 70.7 °F 82% 29.92 in 10.0 mi West 12.7 mph 17.3 mph 0.01 in Rain , Thunderstorm Light Thunderstorms and Rain
12:35 PM 74.3 °F - 70.2 °F 87% 29.91 in 10.0 mi WNW 12.7 mph 21.9 mph 0.01 in Rain , Thunderstorm Rain
12:55 PM 74.5 °F - 68.2 °F 81% 29.89 in 10.0 mi West 10.4 mph 17.3 mph 0.01 in Thunderstorm Overcast
1:15 PM 75.4 °F - 68.4 °F 79% 29.87 in 10.0 mi West 9.2 mph 18.4 mph N/A   Mostly Cloudy
1:35 PM 76.1 °F - 69.6 °F 80% 29.87 in 10.0 mi WNW 6.9 mph - N/A   Scattered Clouds
1:55 PM 75.2 °F - 68.9 °F 81% 29.87 in 10.0 mi WNW 3.5 mph - N/A   Mostly Cloudy
2:15 PM 75.6 °F - 66.7 °F 74% 29.84 in 10.0 mi NW 11.5 mph 17.3 mph N/A   Mostly Cloudy
2:35 PM 77.7 °F - 68.2 °F 72% 29.84 in 10.0 mi WNW 15.0 mph - N/A   Scattered Clouds
2:55 PM 78.1 °F - 68.0 °F 71% 29.83 in 10.0 mi NW 9.2 mph 18.4 mph N/A   Clear
3:15 PM 77.5 °F - 66.9 °F 70% 29.82 in 10.0 mi NNW 6.9 mph 18.4 mph N/A   Scattered Clouds
3:35 PM 79.0 °F - 67.3 °F 67% 29.83 in 10.0 mi WNW 9.2 mph 16.1 mph N/A   Clear
3:55 PM 76.1 °F - 66.2 °F 71% 29.80 in 10.0 mi Calm Calm - N/A   Clear
4:15 PM 75.6 °F - 66.9 °F 74% 29.79 in 10.0 mi Calm Calm - N/A   Clear
4:35 PM 75.4 °F - 67.6 °F 77% 29.80 in 10.0 mi Calm Calm - N/A   Clear
4:55 PM 75.4 °F - 67.3 °F 76% 29.80 in 10.0 mi Calm Calm - N/A   Clear
5:15 PM 76.5 °F - 67.1 °F 73% 29.80 in 10.0 mi Calm Calm - N/A   Clear
5:35 PM 76.8 °F - 67.3 °F 72% 29.80 in 10.0 mi Calm Calm - N/A   Clear
5:55 PM 76.8 °F - 68.0 °F 74% 29.80 in 10.0 mi Calm Calm - N/A   Clear
6:15 PM 75.9 °F - 68.0 °F 76% 29.80 in 10.0 mi Calm Calm - N/A   Clear
6:35 PM 75.0 °F - 68.2 °F 79% 29.80 in 10.0 mi Calm Calm - N/A   Clear
6:55 PM 74.5 °F - 68.4 °F 81% 29.80 in 10.0 mi Calm Calm - N/A   Scattered Clouds
7:15 PM 74.3 °F - 68.9 °F 83% 29.82 in 10.0 mi Calm Calm - N/A   Mostly Cloudy
7:35 PM 74.7 °F - 68.7 °F 82% 29.83 in 10.0 mi Calm Calm - N/A   Overcast
7:55 PM 74.5 °F - 68.9 °F 83% 29.83 in 10.0 mi Calm Calm - N/A   Mostly Cloudy
8:15 PM 74.7 °F - 68.9 °F 82% 29.84 in 10.0 mi Calm Calm - N/A   Mostly Cloudy
8:35 PM 74.5 °F - 68.9 °F 83% 29.84 in 10.0 mi Calm Calm - N/A   Overcast
8:55 PM 74.3 °F - 69.1 °F 84% 29.85 in 10.0 mi Calm Calm - N/A   Overcast
9:15 PM 73.9 °F - 68.9 °F 84% 29.85 in 10.0 mi Calm Calm - N/A   Mostly Cloudy
9:35 PM 73.6 °F - 68.9 °F 85% 29.85 in 10.0 mi Calm Calm - N/A   Light Drizzle
9:55 PM 73.2 °F - 68.9 °F 86% 29.85 in 10.0 mi Calm Calm - N/A   Light Drizzle
10:15 PM 72.7 °F - 68.5 °F 87% 29.85 in 10.0 mi Calm Calm - N/A   Scattered Clouds
10:35 PM 72.5 °F - 68.7 °F 88% 29.85 in 10.0 mi Calm Calm - N/A   Scattered Clouds
10:55 PM 72.5 °F - 68.7 °F 88% 29.86 in 10.0 mi Calm Calm - N/A   Mostly Cloudy
11:15 PM 72.5 °F - 68.5 °F 87% 29.86 in 10.0 mi Calm Calm - N/A   Overcast
11:35 PM 72.3 °F - 68.5 °F 88% 29.85 in 10.0 mi Calm Calm - N/A   Overcast
11:55 PM 72.5 °F - 68.5 °F 87% 29.86 in 10.0 mi Calm Calm - N/A   Overcast